Mountain Home, ID

4:08 AM MDT on May 28, 2017 (GMT -0600)
Mountain Home Air Force Base

Weather History for KMUO - July, 2013

Change the Weather History Date:

Tuesday, July 30, 2013

  Actual Average Record
Temperature  
Mean Temperature 77 °F 78 °F  
Max Temperature 96 °F 95 °F 106 °F (2003)
Min Temperature 58 °F 59 °F 39 °F (1917)
Degree Days  
Heating Degree Days 0 0  
Month to date heating degree days 0 6  
Cooling Degree Days 12 13  
Month to date cooling degree days 454 328  
Growing Degree Days 27 (Base 50)    
Moisture  
Dew Point 33 °F    
Average Humidity 22    
Maximum Humidity 56    
Minimum Humidity 8    
Precipitation  
Precipitation 0.00 in 0.01 in 0.93 in (1931)
Month to date precipitation T 0.21  
Sea Level Pressure  
Sea Level Pressure 29.96 in    
Wind  
Wind Speed 7 mph (NNE)    
Max Wind Speed 15 mph    
Max Gust Speed 26 mph    
Visibility 10 miles    
Events      
T = Trace of Precipitation, MM = Missing Value Source: NWS Daily Summary

Daily Weather History Graph

Daily Weather History Graph

Search for Another Location

Airport or City:

Trip Planner

Search our weather history database for the weather conditions in past years. The results will help you decide how hot, cold, wet, or windy it might be!

Date:

Astronomy

Jul. 30, 2013 Rise Set
Actual Time 6:32 AM MDT 9:06 PM MDT
Civil Twilight 6:00 AM MDT 9:38 PM MDT
Nautical Twilight 5:19 AM MDT 10:19 PM MDT
Astronomical Twilight 4:33 AM MDT 11:05 PM MDT
Moon 12:54 AM MDT (7/30) 3:30 PM MDT (7/30)
Length of Visible Light 15h 38m
Length of Day
14h 34m
Last Quarter, 40% of the Moon is Illuminated
Jul 30
Last Quarter
Aug 6
New
Aug 14
First Quarter
Aug 20
Full
Aug 28
Last Quarter

Hourly Weather History & Observations

Time (MDT) Temp. Dew Point Humidity Pressure Visibility Wind Dir Wind Speed Gust Speed Precip Events Conditions
12:58 AM 69.8 °F 27.3 °F 20% 29.84 in 10.0 mi ENE 6.9 mph - N/A   Clear
1:58 AM 67.5 °F 37.6 °F 33% 29.85 in 10.0 mi North 1.2 mph - N/A   Clear
2:58 AM 63.5 °F 41.5 °F 45% 29.86 in 10.0 mi ENE 5.8 mph - N/A   Clear
3:58 AM 64.6 °F 42.6 °F 45% 29.88 in 10.0 mi ESE 6.9 mph - N/A   Clear
4:58 AM 64.0 °F 45.3 °F 51% 29.90 in 10.0 mi NE 3.5 mph - N/A   Partly Cloudy
5:58 AM 61.7 °F 46.0 °F 56% 29.92 in 10.0 mi ENE 5.8 mph - N/A   Partly Cloudy
6:58 AM 59.5 °F 41.7 °F 52% 29.94 in 10.0 mi East 6.9 mph - N/A   Clear
7:58 AM 64.2 °F 46.0 °F 52% 29.97 in 10.0 mi East 4.6 mph - N/A   Clear
8:58 AM 71.1 °F 43.7 °F 37% 29.99 in 10.0 mi East 3.5 mph - N/A   Clear
9:58 AM 76.8 °F 39.9 °F 27% 30.00 in 10.0 mi East 4.6 mph - N/A   Clear
10:58 AM 81.9 °F 42.6 °F 25% 30.01 in 10.0 mi ESE 8.1 mph - N/A   Clear
11:58 AM 84.4 °F 44.6 °F 25% 30.01 in 10.0 mi ESE 3.5 mph - N/A   Clear
12:58 PM 88.7 °F 40.3 °F 18% 30.00 in 10.0 mi SW 5.8 mph - N/A   Clear
1:58 PM 91.9 °F 34.3 °F 13% 29.99 in 10.0 mi Variable 5.8 mph - N/A   Clear
2:58 PM 92.7 °F 29.1 °F 10% 29.97 in 10.0 mi Variable 5.8 mph - N/A   Partly Cloudy
3:16 PM 93.2 °F 30.2 °F 11% 30.05 in 10.0 mi NNE 13.8 mph 17.3 mph N/A   Clear
3:20 PM 93.2 °F 28.4 °F 10% 30.05 in 10.0 mi North 12.7 mph 16.1 mph N/A   Clear
3:29 PM 95.0 °F 28.4 °F 9% 30.04 in 10.0 mi NW 11.5 mph - N/A   Clear
3:58 PM 93.9 °F 29.1 °F 10% 29.96 in 10.0 mi NNE 5.8 mph 18.4 mph N/A   Clear
4:06 PM 95.0 °F 28.4 °F 9% 30.03 in 10.0 mi NW 12.7 mph 26.5 mph N/A   Clear
4:58 PM 95.0 °F 27.3 °F 9% 29.93 in 10.0 mi NW 15.0 mph - N/A   Scattered Clouds
5:02 PM 95.0 °F 26.6 °F 9% 30.01 in 10.0 mi North 11.5 mph 21.9 mph N/A   Scattered Clouds
5:58 PM 94.5 °F 27.3 °F 9% 29.92 in 10.0 mi NNW 11.5 mph 20.7 mph N/A   Clear
6:08 PM 95.0 °F 26.6 °F 9% 30.00 in 10.0 mi North 12.7 mph - N/A   Clear
6:58 PM 94.6 °F 25.2 °F 8% 29.91 in 10.0 mi NNW 12.7 mph - N/A   Clear
7:58 PM 92.8 °F 23.9 °F 8% 29.91 in 10.0 mi NNW 15.0 mph - N/A   Clear
8:58 PM 90.0 °F 21.7 °F 8% 29.91 in 10.0 mi NW 13.8 mph - N/A   Clear
9:58 PM 82.2 °F 23.2 °F 11% 29.94 in 10.0 mi NW 8.1 mph - N/A   Clear
10:58 PM 80.4 °F 25.9 °F 13% 29.95 in 10.0 mi North 9.2 mph - N/A   Clear
11:58 PM 74.1 °F 29.1 °F 19% 29.96 in 10.0 mi North 3.5 mph - N/A   Clear